Project,Study,Ord_Occ,Event_Num,Cast_ID,Date_Time_UTC,Date_Time_PST,Lat_Dec,Lon_Dec,Sta_ID,Line,Sta,Depth,Pressure,PrQ,Temp1,Temp1Q,Temp2,Temp2Q,TempAve,Salt1,Salt1Q,Salt1_Corr,Salt2,Salt2Q,Salt2_Corr,SaltAve_Corr,Ox1,Ox1Q,Ox1_CruiseCorr,Ox1_StaCorr,Ox2,Ox2Q,Ox2_CruiseCorr,Ox2_StaCorr,OxAve_StaCorr,Ox1uM,Ox1uM_CruiseCorr,Ox1uM_StaCorr,Ox2uM,Ox2uM_CruiseCorr,Ox2uM_StaCorr,OxAveuM_StaCorr,FluorV,FluorQ,EstChl_CruiseCorr,EstChl_StaCorr,ISUSV,ISUSQ,EstNO3_CruiseCorr,EstNO3_StaCorr,SigThetaTS1,SigThetaTS1Q,SigThetaTS2,SigThetaTS2Q,BAT,XMiss,TransQ,pH,pHQ,SPAR,SPARQ,PAR,PARQ,PoT1,PoT2,DynHt,SVA,OxSat1,OxSat2,BTL_Depth,BTL_Temp,SaltB,OxB,OxBuM,Chl-a,Phaeo,NO3,NO2,NH4,PO4,SIL
CalCOFI,2101RL,069,,2101_069d,02-Feb-2021 02:44:46,01-Feb-2021 18:44:46,34.38575,-122.24811,076.7 070.0,076.7,070.0,4.000,4.029,,12.8846,,12.8849,,12.8848,33.1658,,33.1716,33.1643,,33.1663,33.1690,5.8752,,6.1489,6.1398,5.7174,,6.0705,6.0959,6.1179,255.990,268.2305,224.0741,249.115,285.1173,222.3172,223.1957,0.1428,,0.9219,0.9646, ,, , ,24.9950,,24.9938,,0.8965,79.9214,,,,3.3696E+00,,1.0000E-12,,12.8840,12.8843,0.0001,295.352,97.758,95.132,,,,,,,,,,,,
CalCOFI,2101RL,069,,2101_069d,02-Feb-2021 02:44:50,01-Feb-2021 18:44:50,34.38574,-122.24812,076.7 070.0,076.7,070.0,5.000,5.036,,12.8847,,12.8850,,12.8849,33.1660,,33.1718,33.1644,,33.1664,33.1691,5.8801,,6.1540,6.1449,5.7446,,6.0993,6.1251,6.1350,256.201,268.4514,224.2449,250.297,285.3519,223.2945,223.7697,0.1394,,0.8941,0.9497, ,, , ,24.9952,,24.9939,,0.8939,79.9740,,,,3.6232E+00,,1.0000E-12,,12.8841,12.8844,0.0042,295.365,97.839,95.584,5,,33.1686,6.148,268.28,1.005,0.245,,,,,
CalCOFI,2101RL,069,,2101_069d,02-Feb-2021 02:44:53,01-Feb-2021 18:44:53,34.38574,-122.24811,076.7 070.0,076.7,070.0,6.000,6.043,,12.8848,,12.8851,,12.8850,33.1652,,33.1710,33.1644,,33.1664,33.1687,5.8726,,6.1462,6.1371,5.7222,,6.0755,6.1010,6.1191,255.875,268.1102,223.9810,249.323,284.9894,222.4892,223.2351,0.1542,,1.0153,1.0082, ,, , ,24.9946,,24.9939,,0.8941,79.9697,,,,3.5876E+00,,1.0000E-12,,12.8839,12.8842,0.0075,295.446,97.714,95.213,,,,,,,,,,,,
CalCOFI,2101RL,069,,2101_069d,02-Feb-2021 02:44:56,01-Feb-2021 18:44:56,34.38574,-122.24810,076.7 070.0,076.7,070.0,7.000,7.051,,12.8849,,12.8852,,12.8851,33.1659,,33.1717,33.1645,,33.1665,33.1691,5.8747,,6.1484,6.1393,5.7233,,6.0767,6.1022,6.1208,255.965,268.2044,224.0538,249.371,285.0895,222.5288,223.2913,0.1552,,1.0235,1.0116, ,, , ,24.9951,,24.9939,,0.8917,80.0187,,,,3.6939E+00,,1.0000E-12,,12.8840,12.8843,0.0105,295.420,97.750,95.231,,,,,,,,,,,,
CalCOFI,2101RL,069,,2101_069d,02-Feb-2021 02:44:57,01-Feb-2021 18:44:57,34.38574,-122.24810,076.7 070.0,076.7,070.0,8.000,8.058,,12.8849,,12.8852,,12.8851,33.1658,,33.1716,33.1642,,33.1662,33.1689,5.8690,,6.1424,6.1333,5.7276,,6.0813,6.1068,6.1201,255.715,267.9427,223.8514,249.558,284.8115,222.6835,223.2675,0.1470,,0.9563,0.9818, ,, , ,24.9951,,24.9938,,0.8945,79.9618,,,,3.6061E+00,,1.0000E-12,,12.8839,12.8842,0.0135,295.456,97.654,95.302,,,,,,,,,,,,
CalCOFI,2101RL,069,,2101_069d,02-Feb-2021 02:44:59,01-Feb-2021 18:44:59,34.38574,-122.24810,076.7 070.0,076.7,070.0,9.000,9.065,,12.8852,,12.8855,,12.8854,33.1658,,33.1716,33.1642,,33.1662,33.1689,5.8646,,6.1378,6.1287,5.7316,,6.0855,6.1111,6.1199,255.525,267.7438,223.6976,249.730,284.6002,222.8257,223.2617,0.1522,,0.9989,1.0013, ,, , ,24.9951,,24.9937,,0.8908,80.0348,,,,3.6972E+00,,1.0000E-12,,12.8840,12.8843,0.0165,295.480,97.582,95.369,,,,,,,,,,,,
CalCOFI,2101RL,069,,2101_069d,02-Feb-2021 02:45:00,01-Feb-2021 18:45:00,34.38574,-122.24812,076.7 070.0,076.7,070.0,10.000,10.072,,12.8846,,12.8854,,12.8850,33.1663,,33.1721,33.1644,,33.1664,33.1693,5.8669,,6.1402,6.1311,5.7346,,6.0887,6.1143,6.1227,255.626,267.8495,223.7794,249.861,284.7125,222.9340,223.3567,0.1413,,0.9096,0.9581, ,, , ,24.9955,,24.9939,,0.8930,79.9907,,,,3.6947E+00,,1.0000E-12,,12.8833,12.8840,0.0195,295.463,97.620,95.419,10,,33.1659,6.106,266.46,0.902,0.266,,,,,
CalCOFI,2101RL,069,,2101_069d,02-Feb-2021 02:45:01,01-Feb-2021 18:45:01,34.38574,-122.24812,076.7 070.0,076.7,070.0,11.000,11.080,,12.8845,,12.8854,,12.8850,33.1665,,33.1723,33.1646,,33.1666,33.1695,5.8773,,6.1511,6.1420,5.7423,,6.0969,6.1226,6.1323,256.080,268.3247,224.1469,250.196,285.2174,223.2110,223.6790,0.1512,,0.9907,0.9977, ,, , ,24.9958,,24.9941,,0.8944,79.9624,,,,3.6947E+00,,1.0000E-12,,12.8831,12.8839,0.0224,295.466,97.793,95.547,,,,,,,,,,,,
CalCOFI,2101RL,069,,2101_069d,02-Feb-2021 02:45:02,01-Feb-2021 18:45:02,34.38574,-122.24812,076.7 070.0,076.7,070.0,12.000,12.087,,12.8708,,12.8727,,12.8718,33.1701,,33.1759,33.1685,,33.1705,33.1732,5.8652,,6.1384,6.1293,5.7532,,6.1085,6.1343,6.1318,255.550,267.7699,223.7179,250.670,284.6280,223.6029,223.6604,0.1487,,0.9703,0.9884, ,, , ,25.0012,,24.9997,,0.8971,79.9105,,,,3.5120E+00,,1.0000E-12,,12.8692,12.8711,0.0254,294.972,97.566,95.705,,,,,,,,,,,,
CalCOFI,2101RL,069,,2101_069d,02-Feb-2021 02:45:07,01-Feb-2021 18:45:07,34.38573,-122.24811,076.7 070.0,076.7,070.0,13.000,13.094,,12.8735,,12.8713,,12.8724,33.1690,,33.1748,33.1679,,33.1699,33.1724,5.8686,,6.1420,6.1329,5.7459,,6.1007,6.1265,6.1297,255.698,267.9249,223.8377,250.353,284.7926,223.3408,223.5893,0.1478,,0.9629,0.9850, ,, , ,24.9999,,24.9995,,0.8950,79.9516,,,,3.6107E+00,,1.0000E-12,,12.8717,12.8696,0.0285,295.127,97.627,95.581,,,,,,,,,,,,
CalCOFI,2101RL,069,,2101_069d,02-Feb-2021 02:45:13,01-Feb-2021 18:45:13,34.38572,-122.24810,076.7 070.0,076.7,070.0,14.000,14.102,,12.8600,,12.8611,,12.8606,33.1695,,33.1753,33.1685,,33.1705,33.1729,5.8708,,6.1443,6.1352,5.7535,,6.1088,6.1346,6.1349,255.793,268.0243,223.9146,250.686,284.8982,223.6161,223.7654,0.1522,,0.9989,1.0013, ,, , ,25.0030,,25.0020,,0.8974,79.9032,,,,3.6965E+00,,1.0000E-12,,12.8581,12.8593,0.0316,294.861,97.636,95.689,,,,,,,,,,,,
CalCOFI,2101RL,069,,2101_069d,02-Feb-2021 02:45:20,01-Feb-2021 18:45:20,34.38571,-122.24809,076.7 070.0,076.7,070.0,15.000,15.109,,12.8324,,12.8351,,12.8338,33.1714,,33.1772,33.1700,,33.1720,33.1746,5.8694,,6.1428,6.1337,5.7477,,6.1026,6.1284,6.1311,255.734,267.9626,223.8668,250.428,284.8326,223.4028,223.6348,0.1525,,1.0014,1.0024, ,, , ,25.0099,,25.0083,,0.8964,79.9240,,,,3.4103E+00,,1.0000E-12,,12.8304,12.8331,0.0360,294.228,97.560,95.540,,,,,,,,,,,,
CalCOFI,2101RL,069,,2101_069d,02-Feb-2021 02:45:29,01-Feb-2021 18:45:29,34.38570,-122.24810,076.7 070.0,076.7,070.0,16.000,16.116,,12.8015,,12.8045,,12.8030,33.1697,,33.1755,33.1682,,33.1702,33.1729,5.8686,,6.1420,6.1329,5.7540,,6.1093,6.1351,6.1340,255.693,267.9196,223.8336,250.701,284.7870,223.6285,223.7311,0.1594,,1.0579,1.0248, ,, , ,25.0146,,25.0128,,0.8948,79.9561,,,,3.6077E+00,,1.0000E-12,,12.7994,12.8024,0.0407,293.803,97.482,95.583,,,,,,,,,,,,
CalCOFI,2101RL,069,,2101_069d,02-Feb-2021 02:45:33,01-Feb-2021 18:45:33,34.38569,-122.24812,076.7 070.0,076.7,070.0,17.000,17.123,,12.7702,,12.7777,,12.7740,33.1653,,33.1711,33.1645,,33.1665,33.1688,5.8631,,6.1362,6.1271,5.7503,,6.1054,6.1312,6.1292,255.454,267.6694,223.6401,250.542,284.5213,223.4971,223.5686,0.1650,,1.1038,1.0404, ,, , ,25.0173,,25.0153,,0.8924,80.0032,,,,3.6793E+00,,1.0000E-12,,12.7680,12.7755,0.0438,293.569,97.325,95.467,,,,,,,,,,,,
CalCOFI,2101RL,069,,2101_069d,02-Feb-2021 02:45:38,01-Feb-2021 18:45:38,34.38568,-122.24814,076.7 070.0,076.7,070.0,18.000,18.131,,12.7158,,12.7189,,12.7174,33.1582,,33.1640,33.1573,,33.1593,33.1617,5.8640,,6.1372,6.1281,5.7565,,6.1120,6.1378,6.1330,255.495,267.7124,223.6733,250.808,284.5668,223.7170,223.6952,0.1730,,1.1694,1.0585, ,, , ,25.0225,,25.0212,,0.8977,79.8973,,,,3.6947E+00,,1.0000E-12,,12.7134,12.7165,0.0469,293.103,97.227,95.448,,,,,,,,,,,,
CalCOFI,2101RL,069,,2101_069d,02-Feb-2021 02:45:43,01-Feb-2021 18:45:43,34.38565,-122.24814,076.7 070.0,076.7,070.0,19.000,19.138,,12.6932,,12.7017,,12.6975,33.1555,,33.1613,33.1556,,33.1576,33.1595,5.8484,,6.1208,6.1117,5.7367,,6.0909,6.1166,6.1142,254.813,266.9984,223.1212,249.945,283.8085,223.0034,223.0623,0.1912,,1.3185,1.0816, ,, , ,25.0248,,25.0232,,0.9022,79.8080,,,,3.5318E+00,,1.0000E-12,,12.6906,12.6991,0.0503,292.904,96.920,95.085,,,,,,,,,,,,
CalCOFI,2101RL,069,,2101_069d,02-Feb-2021 02:45:46,01-Feb-2021 18:45:46,34.38564,-122.24816,076.7 070.0,076.7,070.0,20.000,20.145,,12.6901,,12.6902,,12.6902,33.1555,,33.1613,33.1539,,33.1559,33.1586,5.8404,,6.1125,6.1033,5.7329,,6.0869,6.1125,6.1079,254.466,266.6352,222.8403,249.780,283.4226,222.8670,222.8537,0.1969,,1.3652,1.0836, ,, , ,25.0254,,25.0242,,0.9042,79.7681,,,,3.6929E+00,,1.0000E-12,,12.6875,12.6876,0.0534,292.875,96.782,94.999,,,,,,,,,,,,
CalCOFI,2101RL,069,,2101_069d,02-Feb-2021 02:45:47,01-Feb-2021 18:45:47,34.38564,-122.24818,076.7 070.0,076.7,070.0,21.000,21.153,,12.6801,,12.6803,,12.6802,33.1542,,33.1600,33.1527,,33.1547,33.1574,5.8464,,6.1187,6.1096,5.7442,,6.0989,6.1246,6.1171,254.725,266.9063,223.0499,250.274,283.7106,223.2755,223.1627,0.2083,,1.4586,1.0802, ,, , ,25.0264,,25.0252,,0.9018,79.8161,,,,3.6947E+00,,1.0000E-12,,12.6773,12.6775,0.0564,292.806,96.860,95.167,21,,33.1604,6.058,264.35,1.081,0.326,,,,,
CalCOFI,2101RL,069,,2101_069d,02-Feb-2021 02:45:53,01-Feb-2021 18:45:53,34.38562,-122.24816,076.7 070.0,076.7,070.0,22.000,22.160,,12.6808,,12.6823,,12.6816,33.1549,,33.1607,33.1534,,33.1554,33.1581,5.8132,,6.0840,6.0748,5.7172,,6.0702,6.0957,6.0853,253.279,265.3927,221.8793,249.098,282.1026,222.3031,222.0912,0.1895,,1.3046,1.0805, ,, , ,25.0269,,25.0253,,0.8992,79.8678,,,,3.6947E+00,,1.0000E-12,,12.6778,12.6794,0.0606,292.790,96.312,94.724,,,,,,,,,,,,
CalCOFI,2101RL,069,,2101_069d,02-Feb-2021 02:45:56,01-Feb-2021 18:45:56,34.38563,-122.24815,076.7 070.0,076.7,070.0,23.000,23.167,,12.6957,,12.6962,,12.6960,33.1639,,33.1697,33.1619,,33.1639,33.1668,5.7828,,6.0522,6.0430,5.6583,,6.0077,6.0324,6.0377,251.952,264.0036,220.8049,246.531,280.6270,220.1806,220.4928,0.2005,,1.3947,1.0836, ,, , ,25.0309,,25.0293,,0.8942,79.9668,,,,3.6947E+00,,1.0000E-12,,12.6927,12.6932,0.0644,292.432,95.843,93.780,,,,,,,,,,,,
CalCOFI,2101RL,069,,2101_069d,02-Feb-2021 02:45:57,01-Feb-2021 18:45:57,34.38564,-122.24814,076.7 070.0,076.7,070.0,24.000,24.175,,12.7289,,12.7291,,12.7290,33.1766,,33.1824,33.1749,,33.1769,33.1797,5.7871,,6.0567,6.0475,5.6559,,6.0051,6.0299,6.0387,252.140,264.2004,220.9572,246.422,280.8360,220.0905,220.5239,0.1884,,1.2956,1.0797, ,, , ,25.0343,,25.0330,,0.8826,80.1995,,,,3.6947E+00,,1.0000E-12,,12.7257,12.7259,0.0673,292.136,95.988,93.810,,,,,,,,,,,,
CalCOFI,2101RL,069,,2101_069d,02-Feb-2021 02:46:01,01-Feb-2021 18:46:01,34.38564,-122.24812,076.7 070.0,076.7,070.0,25.000,25.182,,12.7249,,12.7252,,12.7251,33.1752,,33.1810,33.1735,,33.1755,33.1783,5.7713,,6.0401,6.0309,5.6749,,6.0253,6.0503,6.0406,251.450,263.4781,220.3985,247.250,280.0687,220.7751,220.5868,0.1882,,1.2939,1.0795, ,, , ,25.0341,,25.0327,,0.8823,80.2065,,,,3.6947E+00,,1.0000E-12,,12.7216,12.7218,0.0716,292.182,95.717,94.117,,,,,,,,,,,,
CalCOFI,2101RL,069,,2101_069d,02-Feb-2021 02:46:04,01-Feb-2021 18:46:04,34.38564,-122.24812,076.7 070.0,076.7,070.0,26.000,26.189,,12.7467,,12.7464,,12.7466,33.1867,,33.1925,33.1848,,33.1868,33.1897,5.7208,,5.9873,5.9780,5.6138,,5.9604,5.9847,5.9814,249.248,261.1730,218.6158,244.587,277.6201,218.5732,218.5945,0.1824,,1.2464,1.0736, ,, , ,25.0387,,25.0373,,0.8697,80.4599,,,,3.6947E+00,,1.0000E-12,,12.7432,12.7430,0.0758,291.768,94.929,93.151,,,,,,,,,,,,
CalCOFI,2101RL,069,,2101_069d,02-Feb-2021 02:46:06,01-Feb-2021 18:46:06,34.38564,-122.24810,076.7 070.0,076.7,070.0,27.000,27.197,,12.7535,,12.7537,,12.7536,33.1931,,33.1989,33.1916,,33.1936,33.1963,5.7256,,5.9923,5.9830,5.6145,,5.9612,5.9854,5.9842,249.460,261.3949,218.7874,244.618,277.8558,218.5989,218.6932,0.1727,,1.1669,1.0580, ,, , ,25.0424,,25.0412,,0.8598,80.6578,,,,3.6947E+00,,1.0000E-12,,12.7499,12.7501,0.0787,291.444,95.027,93.182,,,,,,,,,,,,
CalCOFI,2101RL,069,,2101_069d,02-Feb-2021 02:46:10,01-Feb-2021 18:46:10,34.38564,-122.24808,076.7 070.0,076.7,070.0,28.000,28.204,,12.7569,,12.7561,,12.7565,33.1954,,33.2012,33.1932,,33.1952,33.1982,5.7171,,5.9834,5.9741,5.6086,,5.9549,5.9791,5.9766,249.087,261.0045,218.4855,244.362,277.4411,218.3872,218.4364,0.1612,,1.0727,1.0301, ,, , ,25.0436,,25.0420,,0.8516,80.8235,,,,3.6430E+00,,1.0000E-12,,12.7532,12.7524,0.0824,291.361,94.893,93.090,,,,,,,,,,,,
CalCOFI,2101RL,069,,2101_069d,02-Feb-2021 02:46:13,01-Feb-2021 18:46:13,34.38564,-122.24806,076.7 070.0,076.7,070.0,29.000,29.211,,12.7783,,12.7780,,12.7782,33.2091,,33.2149,33.2073,,33.2093,33.2121,5.6707,,5.9349,5.9255,5.5757,,5.9200,5.9438,5.9347,247.065,258.8878,216.8485,242.926,275.1926,217.1998,217.0242,0.1480,,0.9645,0.9857, ,, , ,25.0500,,25.0487,,0.8420,81.0183,,,,3.0055E+00,,1.0000E-12,,12.7744,12.7741,0.0860,290.773,94.173,92.594,,,,,,,,,,,,
CalCOFI,2101RL,069,,2101_069d,02-Feb-2021 02:46:14,01-Feb-2021 18:46:14,34.38564,-122.24806,076.7 070.0,076.7,070.0,30.000,30.219,,12.7979,,12.7981,,12.7980,33.2178,,33.2236,33.2160,,33.2180,33.2208,5.6547,,5.9181,5.9088,5.5761,,5.9204,5.9442,5.9265,246.367,258.1572,216.2834,242.944,274.4164,217.2147,216.7491,0.1435,,0.9277,0.9676, ,, , ,25.0529,,25.0515,,0.8355,81.1489,,,,3.6867E+00,,1.0000E-12,,12.7939,12.7941,0.0889,290.526,93.951,92.644,,,,,,,,,,,,
CalCOFI,2101RL,069,,2101_069d,02-Feb-2021 02:46:16,01-Feb-2021 18:46:16,34.38564,-122.24806,076.7 070.0,076.7,070.0,31.000,31.226,,12.7972,,12.7974,,12.7973,33.2216,,33.2274,33.2202,,33.2222,33.2248,5.6592,,5.9228,5.9135,5.5652,,5.9088,5.9325,5.9230,246.561,258.3603,216.4404,242.466,274.6321,216.8195,216.6300,0.1312,,0.8269,0.9100, ,, , ,25.0561,,25.0549,,0.8238,81.3867,,,,3.1372E+00,,1.0000E-12,,12.7931,12.7933,0.0918,290.252,94.026,92.464,31,,33.1992,, ,,,,,,,
CalCOFI,2101RL,069,,2101_069d,02-Feb-2021 02:46:18,01-Feb-2021 18:46:18,34.38563,-122.24805,076.7 070.0,076.7,070.0,32.000,32.234,,12.7915,,12.7921,,12.7918,33.2206,,33.2264,33.2190,,33.2210,33.2237,5.6659,,5.9298,5.9205,5.5611,,5.9044,5.9281,5.9243,246.855,258.6680,216.6785,242.290,274.9590,216.6740,216.6763,0.1234,,0.7630,0.8675, ,, , ,25.0564,,25.0551,,0.8120,81.6279,,,,3.3475E+00,,1.0000E-12,,12.7872,12.7878,0.0947,290.247,94.126,92.386,,,,,,,,,,,,
CalCOFI,2101RL,069,,2101_069d,02-Feb-2021 02:46:21,01-Feb-2021 18:46:21,34.38562,-122.24806,076.7 070.0,076.7,070.0,33.000,33.241,,12.7914,,12.7908,,12.7911,33.2252,,33.2310,33.2222,,33.2242,33.2276,5.6484,,5.9115,5.9022,5.5421,,5.8843,5.9077,5.9050,246.091,257.8683,216.0599,241.459,274.1095,215.9869,216.0234,0.1256,,0.7810,0.8800, ,, , ,25.0600,,25.0578,,0.8038,81.7960,,,,3.7414E+00,,1.0000E-12,,12.7870,12.7863,0.0977,289.928,93.838,92.068,,,,,,,,,,,,
CalCOFI,2101RL,069,,2101_069d,02-Feb-2021 02:46:23,01-Feb-2021 18:46:23,34.38562,-122.24806,076.7 070.0,076.7,070.0,34.000,34.248,,12.7886,,12.7888,,12.7887,33.2269,,33.2327,33.2254,,33.2274,33.2301,5.6570,,5.9205,5.9112,5.5463,,5.8887,5.9122,5.9117,246.465,258.2598,216.3627,241.642,274.5253,216.1382,216.2505,0.1144,,0.6892,0.8128, ,, , ,25.0619,,25.0607,,0.8002,81.8693,,,,3.6947E+00,,1.0000E-12,,12.7841,12.7842,0.1006,289.774,93.976,92.137,,,,,,,,,,,,
CalCOFI,2101RL,069,,2101_069d,02-Feb-2021 02:46:26,01-Feb-2021 18:46:26,34.38562,-122.24806,076.7 070.0,076.7,070.0,35.000,35.256,,12.7878,,12.7887,,12.7883,33.2268,,33.2326,33.2251,,33.2271,33.2299,5.6501,,5.9133,5.9039,5.5374,,5.8793,5.9027,5.9033,246.165,257.9457,216.1198,241.252,274.1917,215.8157,215.9678,0.1142,,0.6876,0.8115, ,, , ,25.0620,,25.0606,,0.7992,81.8908,,,,3.3592E+00,,1.0000E-12,,12.7832,12.7840,0.1036,289.793,93.860,91.988,,,,,,,,,,,,
CalCOFI,2101RL,069,,2101_069d,02-Feb-2021 02:46:28,01-Feb-2021 18:46:28,34.38563,-122.24806,076.7 070.0,076.7,070.0,36.000,36.263,,12.7828,,12.7829,,12.7829,33.2272,,33.2330,33.2256,,33.2276,33.2303,5.6535,,5.9169,5.9075,5.5269,,5.8681,5.8914,5.8995,246.311,258.0986,216.2380,240.797,274.3541,215.4395,215.8388,0.1079,,0.6359,0.7694, ,, , ,25.0633,,25.0621,,0.7977,81.9204,,,,3.5199E+00,,1.0000E-12,,12.7779,12.7781,0.1065,289.695,93.906,91.803,,,,,,,,,,,,
CalCOFI,2101RL,069,,2101_069d,02-Feb-2021 02:46:29,01-Feb-2021 18:46:29,34.38564,-122.24806,076.7 070.0,076.7,070.0,37.000,37.271,,12.7783,,12.7787,,12.7785,33.2276,,33.2334,33.2259,,33.2279,33.2307,5.6552,,5.9186,5.9093,5.5332,,5.8748,5.8982,5.9038,246.387,258.1781,216.2996,241.070,274.4386,215.6652,215.9824,0.1188,,0.7253,0.8403, ,, , ,25.0646,,25.0632,,0.7997,81.8794,,,,3.6955E+00,,1.0000E-12,,12.7733,12.7738,0.1094,289.602,93.927,91.900,,,,,,,,,,,,
CalCOFI,2101RL,069,,2101_069d,02-Feb-2021 02:46:29,01-Feb-2021 18:46:29,34.38564,-122.24806,076.7 070.0,076.7,070.0,38.000,38.278,,12.7724,,12.7728,,12.7726,33.2284,,33.2342,33.2268,,33.2288,33.2315,5.6541,,5.9175,5.9081,5.5417,,5.8838,5.9073,5.9077,246.335,258.1237,216.2575,241.440,274.3808,215.9711,216.1143,0.1075,,0.6327,0.7666, ,, , ,25.0663,,25.0650,,0.8000,81.8740,,,,3.3489E+00,,1.0000E-12,,12.7673,12.7677,0.1123,289.460,93.896,92.030,,,,,,,,,,,,
CalCOFI,2101RL,069,,2101_069d,02-Feb-2021 02:46:30,01-Feb-2021 18:46:30,34.38564,-122.24806,076.7 070.0,076.7,070.0,39.000,39.285,,12.7694,,12.7696,,12.7695,33.2290,,33.2348,33.2275,,33.2295,33.2322,5.6485,,5.9116,5.9023,5.5537,,5.8966,5.9202,5.9113,246.092,257.8693,216.0607,241.965,274.1106,216.4052,216.2330,0.1096,,0.6499,0.7810, ,, , ,25.0674,,25.0662,,0.8073,81.7238,,,,3.3847E+00,,1.0000E-12,,12.7642,12.7644,0.1152,289.382,93.798,92.225,,,,,,,,,,,,
CalCOFI,2101RL,069,,2101_069d,02-Feb-2021 02:46:35,01-Feb-2021 18:46:35,34.38566,-122.24808,076.7 070.0,076.7,070.0,40.000,40.293,,12.7681,,12.7689,,12.7685,33.2294,,33.2352,33.2278,,33.2298,33.2325,5.6489,,5.9120,5.9027,5.5425,,5.8847,5.9082,5.9055,246.111,257.8892,216.0761,241.476,274.1317,216.0009,216.0385,0.1083,,0.6392,0.7721, ,, , ,25.0680,,25.0666,,0.7937,82.0028,,,,3.5505E+00,,1.0000E-12,,12.7627,12.7636,0.1191,289.353,93.803,92.037,,,,,,,,,,,,
CalCOFI,2101RL,069,,2101_069d,02-Feb-2021 02:46:38,01-Feb-2021 18:46:38,34.38566,-122.24808,076.7 070.0,076.7,070.0,41.000,41.300,,12.7437,,12.7442,,12.7440,33.2340,,33.2398,33.2325,,33.2345,33.2372,5.6201,,5.8819,5.8725,5.5053,,5.8452,5.8682,5.8704,244.856,256.5755,215.0601,239.851,272.7361,214.6573,214.8587,0.1026,,0.5925,0.7316, ,, , ,25.0764,,25.0751,,0.7888,82.1039,,,,3.6997E+00,,1.0000E-12,,12.7382,12.7387,0.1223,288.585,93.281,91.374,,,,,,,,,,,,
CalCOFI,2101RL,069,,2101_069d,02-Feb-2021 02:46:39,01-Feb-2021 18:46:39,34.38566,-122.24808,076.7 070.0,076.7,070.0,42.000,42.308,,12.7349,,12.7352,,12.7351,33.2388,,33.2446,33.2372,,33.2392,33.2419,5.6196,,5.8814,5.8720,5.5072,,5.8472,5.8703,5.8712,244.831,256.5493,215.0398,239.934,272.7083,214.7259,214.8829,0.0964,,0.5417,0.6847, ,, , ,25.0818,,25.0805,,0.7846,82.1882,,,,3.3383E+00,,1.0000E-12,,12.7293,12.7296,0.1252,288.089,93.258,91.392,,,,,,,,,,,,
CalCOFI,2101RL,069,,2101_069d,02-Feb-2021 02:46:40,01-Feb-2021 18:46:40,34.38567,-122.24808,076.7 070.0,076.7,070.0,43.000,43.315,,12.7309,,12.7311,,12.7310,33.2421,,33.2479,33.2405,,33.2425,33.2452,5.6212,,5.8830,5.8737,5.5092,,5.8493,5.8724,5.8731,244.900,256.6215,215.0957,240.019,272.7850,214.7962,214.9460,0.0912,,0.4991,0.6431, ,, , ,25.0852,,25.0839,,0.7832,82.2182,,,,2.8134E+00,,1.0000E-12,,12.7251,12.7254,0.1281,287.795,93.279,91.419,,,,,,,,,,,,
CalCOFI,2101RL,069,,2101_069d,02-Feb-2021 02:46:41,01-Feb-2021 18:46:41,34.38567,-122.24808,076.7 070.0,076.7,070.0,44.000,44.322,,12.7273,,12.7276,,12.7275,33.2450,,33.2508,33.2435,,33.2455,33.2482,5.6250,,5.8870,5.8776,5.5112,,5.8514,5.8746,5.8761,245.066,256.7953,215.2301,240.107,272.9696,214.8690,215.0496,0.0879,,0.4721,0.6156, ,, , ,25.0881,,25.0870,,0.7777,82.3312,,,,3.4588E+00,,1.0000E-12,,12.7215,12.7217,0.1310,287.541,93.337,91.448,,,,,,,,,,,,
CalCOFI,2101RL,069,,2101_069d,02-Feb-2021 02:46:44,01-Feb-2021 18:46:44,34.38566,-122.24808,076.7 070.0,076.7,070.0,45.000,45.330,,12.7266,,12.7273,,12.7270,33.2466,,33.2524,33.2446,,33.2466,33.2495,5.6191,,5.8809,5.8715,5.5043,,5.8441,5.8672,5.8694,244.805,256.5221,215.0188,239.806,272.6794,214.6201,214.8195,0.0801,,0.4081,0.5474, ,, , ,25.0895,,25.0879,,0.7746,82.3947,,,,3.1945E+00,,1.0000E-12,,12.7206,12.7213,0.1339,287.434,93.237,91.333,,,,,,,,,,,,
CalCOFI,2101RL,069,,2101_069d,02-Feb-2021 02:46:46,01-Feb-2021 18:46:46,34.38564,-122.24812,076.7 070.0,076.7,070.0,46.000,46.337,,12.7229,,12.7231,,12.7230,33.2477,,33.2535,33.2464,,33.2484,33.2510,5.6195,,5.8813,5.8719,5.4915,,5.8305,5.8534,5.8627,244.823,256.5409,215.0334,239.249,272.6994,214.1595,214.5965,0.0779,,0.3901,0.5273, ,, , ,25.0912,,25.0901,,0.7719,82.4495,,,,3.7008E+00,,1.0000E-12,,12.7167,12.7170,0.1368,287.304,93.238,91.114,,,,,,,,,,,,
CalCOFI,2101RL,069,,2101_069d,02-Feb-2021 02:46:48,01-Feb-2021 18:46:48,34.38563,-122.24813,076.7 070.0,076.7,070.0,47.000,47.345,,12.7184,,12.7178,,12.7181,33.2483,,33.2541,33.2471,,33.2491,33.2516,5.6042,,5.8653,5.8559,5.5080,,5.8480,5.8711,5.8635,244.159,255.8458,214.4958,239.966,271.9610,214.7524,214.6241,0.0808,,0.4139,0.5537, ,, , ,25.0925,,25.0917,,0.7715,82.4596,,,,3.5362E+00,,1.0000E-12,,12.7121,12.7115,0.1397,287.201,92.977,91.378,,,,,,,,,,,,
CalCOFI,2101RL,069,,2101_069d,02-Feb-2021 02:46:51,01-Feb-2021 18:46:51,34.38562,-122.24814,076.7 070.0,076.7,070.0,48.000,48.352,,12.7134,,12.7141,,12.7138,33.2493,,33.2551,33.2477,,33.2497,33.2524,5.6003,,5.8612,5.8518,5.4801,,5.8184,5.8412,5.8465,243.986,255.6647,214.3557,238.751,271.7687,213.7478,214.0518,0.0801,,0.4081,0.5474, ,, , ,25.0943,,25.0930,,0.7719,82.4493,,,,3.6058E+00,,1.0000E-12,,12.7070,12.7077,0.1426,287.061,92.902,90.909,,,,,,,,,,,,
CalCOFI,2101RL,069,,2101_069d,02-Feb-2021 02:46:52,01-Feb-2021 18:46:52,34.38562,-122.24814,076.7 070.0,076.7,070.0,49.000,49.360,,12.7070,,12.7072,,12.7071,33.2506,,33.2564,33.2493,,33.2513,33.2539,5.5767,,5.8365,5.8270,5.4556,,5.7924,5.8149,5.8210,242.960,254.5907,213.5251,237.683,270.6277,212.8647,213.1949,0.0764,,0.3778,0.5134, ,, , ,25.0966,,25.0956,,0.7705,82.4785,,,,3.6974E+00,,1.0000E-12,,12.7005,12.7006,0.1455,286.864,92.500,90.490,,,,,,,,,,,,
CalCOFI,2101RL,069,,2101_069d,02-Feb-2021 02:46:54,01-Feb-2021 18:46:54,34.38562,-122.24814,076.7 070.0,076.7,070.0,50.000,50.367,,12.6937,,12.6937,,12.6937,33.2525,,33.2583,33.2513,,33.2533,33.2558,5.5874,,5.8477,5.8383,5.4503,,5.7868,5.8092,5.8238,243.422,255.0743,213.8991,237.449,271.1415,212.6712,213.2852,0.0757,,0.3721,0.5068, ,, , ,25.1007,,25.0998,,0.7693,82.5031,,,,3.6947E+00,,1.0000E-12,,12.6871,12.6871,0.1483,286.502,92.652,90.377,,,,,,,,,,,,
CalCOFI,2101RL,069,,2101_069d,02-Feb-2021 02:46:55,01-Feb-2021 18:46:55,34.38562,-122.24813,076.7 070.0,076.7,070.0,51.000,51.375,,12.6285,,12.6284,,12.6285,33.2570,,33.2628,33.2560,,33.2580,33.2604,5.5959,,5.8566,5.8472,5.4708,,5.8085,5.8312,5.8392,243.789,255.4585,214.1962,238.340,271.5496,213.4079,213.8021,0.0693,,0.3197,0.4452, ,, , ,25.1169,,25.1161,,0.7657,82.5793,,,,3.6947E+00,,1.0000E-12,,12.6218,12.6216,0.1512,284.982,92.670,90.598,51,,33.2386,5.854,255.44,0.450,0.217,,,,,
CalCOFI,2101RL,069,,2101_069d,02-Feb-2021 02:46:56,01-Feb-2021 18:46:56,34.38562,-122.24812,076.7 070.0,076.7,070.0,52.000,52.382,,12.6167,,12.6169,,12.6168,33.2599,,33.2657,33.2585,,33.2605,33.2631,5.5941,,5.8547,5.8453,5.4806,,5.8189,5.8417,5.8435,243.710,255.3758,214.1323,238.764,271.4617,213.7585,213.9454,0.0710,,0.3336,0.4619, ,, , ,25.1215,,25.1203,,0.7635,82.6237,,,,3.6947E+00,,1.0000E-12,,12.6098,12.6100,0.1541,284.572,92.619,90.739,,,,,,,,,,,,
CalCOFI,2101RL,069,,2101_069d,02-Feb-2021 02:47:00,01-Feb-2021 18:47:00,34.38562,-122.24810,076.7 070.0,076.7,070.0,53.000,53.389,,12.6294,,12.6379,,12.6337,33.2590,,33.2648,33.2565,,33.2585,33.2617,5.5831,,5.8432,5.8337,5.4565,,5.7933,5.8159,5.8248,243.230,254.8734,213.7437,237.717,270.9280,212.8928,213.3183,0.0716,,0.3385,0.4677, ,, , ,25.1183,,25.1147,,0.7649,82.5938,,,,3.6947E+00,,1.0000E-12,,12.6224,12.6308,0.1573,284.903,92.461,90.379,,,,,,,,,,,,